Albany, GA

9:48 PM EST on December 10, 2019 (GMT -0500)
Southwest Georgia Regional

Weather History for KABY - November, 2019

Change the Weather History Date:

Monday, November 18, 2019

  Actual Average Record
Temperature  
Mean Temperature 60 °F 58 °F  
Max Temperature 70 °F 71 °F 85 °F (1958)
Min Temperature 50 °F 45 °F 24 °F (1970)
Degree Days  
Heating Degree Days 5    
Month to date heating degree days 167  
Since 1 July heating degree days 175  
Cooling Degree Days 0    
Month to date cooling degree days 14  
Year to date cooling degree days 3223  
Growing Degree Days 10 (Base 50)    
Moisture  
Dew Point 43 °F    
Average Humidity 60    
Maximum Humidity 89    
Minimum Humidity 26    
Precipitation  
Precipitation 0.00 in 0.11 in 0.72 in (2015)
Month to date precipitation 1.03 1.60  
Year to date precipitation 39.65 43.23  
Sea Level Pressure  
Sea Level Pressure 29.86 in    
Wind  
Wind Speed 2 mph ()    
Max Wind Speed 14 mph    
Max Gust Speed 20 mph    
Visibility 9.9 miles    
Events      
T = Trace of Precipitation, MM = Missing Value Source: Averaged Metar Reports

Daily Weather History Graph

Daily Weather History Graph

Search for Another Location

Airport or City:

Astronomy

Nov. 18, 2019 Rise Set
Actual Time 7:07 AM EST 5:36 PM EST
Civil Twilight 6:41 AM EST 6:02 PM EST
Nautical Twilight 6:11 AM EST 6:31 PM EST
Astronomical Twilight 5:42 AM EST 7:00 PM EST
Moon 11:21 PM EST (11/18) 12:35 PM EST (11/18)
Length of Visible Light 11h 21m
Length of Day
10h 29m
Waning Gibbous, 63% of the Moon is Illuminated
Nov 18
Waning Gibbous
Nov 19
Last Quarter
Nov 26
New
Dec 4
First Quarter
Dec 12
Full

Hourly Weather History & Observations

Time (EST) Temp. Dew Point Humidity Pressure Visibility Wind Dir Wind Speed Gust Speed Precip Events Conditions
1:53 AM 55.9 °F 52.0 °F 87% 29.89 in 10.0 mi Calm Calm - N/A   Overcast
2:53 AM 57.0 °F 51.1 °F 81% 29.89 in 10.0 mi Calm Calm - N/A   Overcast
3:53 AM 55.9 °F 52.0 °F 87% 29.88 in 10.0 mi Calm Calm - N/A   Overcast
4:53 AM 55.0 °F 51.1 °F 86% 29.89 in 10.0 mi Calm Calm - N/A   Mostly Cloudy
5:53 AM 52.0 °F 48.9 °F 89% 29.88 in 9.0 mi Calm Calm - N/A   Mostly Cloudy
6:53 AM 51.1 °F 48.0 °F 89% 29.89 in 9.0 mi Calm Calm - N/A   Mostly Cloudy
7:53 AM 52.0 °F 48.0 °F 86% 29.90 in 10.0 mi Calm Calm - N/A   Scattered Clouds
8:53 AM 57.0 °F 52.0 °F 83% 29.91 in 10.0 mi Variable 3.5 mph - N/A   Scattered Clouds
9:53 AM 62.1 °F 39.9 °F 44% 29.91 in 10.0 mi NNW 9.2 mph - N/A   Scattered Clouds
10:53 AM 64.9 °F 41.0 °F 42% 29.90 in 10.0 mi NNW 6.9 mph - N/A   Clear
12:53 PM 68.0 °F 36.0 °F 31% 29.84 in 10.0 mi West 8.1 mph - N/A   Clear
1:53 PM 69.1 °F 34.0 °F 27% 29.82 in 10.0 mi SW 5.8 mph - N/A   Clear
2:53 PM 68.0 °F 32.0 °F 26% 29.80 in 10.0 mi WNW 6.9 mph - N/A   Clear
3:53 PM 66.9 °F 32.0 °F 27% 29.80 in 10.0 mi West 9.2 mph - N/A   Clear
4:53 PM 64.0 °F 37.9 °F 38% 29.81 in 10.0 mi West 5.8 mph - N/A   Clear
5:53 PM 61.0 °F 39.0 °F 44% 29.82 in 10.0 mi West 4.6 mph - N/A   Clear
6:53 PM 59.0 °F 37.9 °F 46% 29.83 in 10.0 mi West 4.6 mph - N/A   Clear
7:53 PM 55.9 °F 41.0 °F 57% 29.84 in 10.0 mi West 4.6 mph - N/A   Clear
8:53 PM 55.9 °F 39.9 °F 55% 29.85 in 10.0 mi WNW 3.5 mph - N/A   Clear
9:53 PM 52.0 °F 42.1 °F 69% 29.86 in 10.0 mi West 3.5 mph - N/A   Clear
10:53 PM 53.1 °F 41.0 °F 64% 29.87 in 10.0 mi West 3.5 mph - N/A   Clear
11:53 PM 50.0 °F 39.9 °F 68% 29.88 in 10.0 mi Calm Calm - N/A   Clear